This demonstration page uses our WeatherBlox Daily Observations layout. Learn more.

Left ArrowRight Arrow

Hourly Observations for November 19, 2021

Temp ( °F °C ) Dew Point ( °F °C ) Humidity (%) Winds ( mph kmh ) Pressure ( in mb ) Visibility ( mi km ) Precip ( " mm )
12:56 am 00:56 Clear 36 2.2 15 -9.4 42 42 S 18 30 30.22 1024 10 16 0.00 0.00
1:56 am 01:56 Clear 36 2.2 14 -10 40 40 S 21 33 30.18 1022 10 16 0.00 0.00
2:56 am 02:56 Clear 36 2.2 15 -9.4 42 42 S 22 35 30.16 1021 10 16 0.00 0.00
3:56 am 03:56 Clear 36 2.2 15 -9.4 42 42 S 17 28 30.15 1021 10 16 0.00 0.00
4:56 am 04:56 Clear 36 2.2 16 -8.9 44 44 S 16 26 30.13 1020 10 16 0.00 0.00
5:56 am 05:56 Clear 37 2.8 14 -10 39 39 S 16 26 30.14 1021 10 16 0.00 0.00
6:56 am 06:56 Clear 35 1.7 15 -9.4 44 44 S 18 30 30.13 1020 10 16 0.00 0.00
7:56 am 07:56 Sunny 35 1.7 15 -9.4 44 44 S 17 28 30.11 1020 10 16 0.00 0.00
8:56 am 08:56 Sunny 37 2.8 16 -8.9 42 42 S 18 30 30.11 1020 10 16 0.00 0.00
9:56 am 09:56 Sunny 40 4.4 16 -8.9 38 38 SSW 21 33 30.08 1019 10 16 0.00 0.00
10:56 am 10:56 Sunny 43 6.1 16 -8.9 34 34 SSW 20 31 30.08 1019 10 16 0.00 0.00
11:56 am 11:56 Sunny 46 7.8 17 -8.3 31 31 SSW 18 30 30.06 1018 10 16 0.00 0.00
12:56 pm 12:56 Sunny 47 8.3 17 -8.3 30 30 SSW 15 24 30.01 1016 10 16 0.00 0.00
1:56 pm 13:56 Sunny 48 8.9 18 -7.8 30 30 SSW 16 26 29.98 1015 10 16 0.00 0.00
2:56 pm 14:56 Sunny 49 9.4 18 -7.8 29 29 SSW 12 19 29.96 1015 10 16 0.00 0.00
3:56 pm 15:56 Sunny 50 10 19 -7.2 29 29 SSW 10 17 29.95 1014 10 16 0.00 0.00
4:56 pm 16:56 Sunny 49 9.4 19 -7.2 31 31 SSW 12 19 29.96 1015 10 16 0.00 0.00
5:56 pm 17:56 Clear 45 7.2 21 -6.1 39 39 SSW 3 6 29.97 1015 10 16 0.00 0.00
6:56 pm 18:56 Clear 41 5 22 -5.6 47 47 Calm 30.01 1016 10 16 0.00 0.00
7:56 pm 19:56 Clear 39 3.9 23 -5 53 53 SE 5 7 30.01 1016 10 16 0.00 0.00
8:56 pm 20:56 Clear 38 3.3 23 -5 55 55 SSE 5 7 30.01 1016 10 16 0.00 0.00
9:56 pm 21:56 Clear 39 3.9 23 -5 53 53 Calm 30.01 1016 10 16 0.00 0.00
10:56 pm 22:56 Clear 37 2.8 23 -5 57 57 Calm 30.01 1016 10 16 0.00 0.00
11:56 pm 23:56 Clear 33 0.6 22 -5.6 64 64 N 3 6 30.01 1016 10 16 0.00 0.00

Powered by AerisWeather